AEE317 LGHI-LATI

Flight info

Callsign AEE317
Flight time 1h 33m
Altitude 22000
Route MES UG18 GIKAS DCT TSL UM603 PINDO DCT ELBAK
Aircraft AT76/M-SDFGIRY/S

Departure

Time 2026-04-25 11:33
Airport Chios Island National Airport (LGHI)

Arrival

Time 2026-04-25 13:06
Airport Tirana International Airport Mother Teresa (LATI)
Time Latitude Longitude Altitude Speed Heading
2026-04-25 10:55 38.34468 26.14239 26 ft 0 kts 99°
2026-04-25 11:27 38.34468 26.14240 26 ft 0 kts 104°
2026-04-25 11:27 38.34466 26.14241 26 ft 0 kts 128°
2026-04-25 11:27 38.34462 26.14240 26 ft 1 kts 168°
2026-04-25 11:28 38.34422 26.14196 30 ft 9 kts 230°
2026-04-25 11:28 38.34379 26.14124 30 ft 11 kts 231°
2026-04-25 11:28 38.34374 26.14116 26 ft 0 kts 231°
2026-04-25 11:28 38.34373 26.14115 26 ft 0 kts 231°
2026-04-25 11:29 38.34365 26.14103 28 ft 5 kts 232°
2026-04-25 11:29 38.34333 26.14058 26 ft 9 kts 210°
2026-04-25 11:29 38.34264 26.14040 26 ft 11 kts 191°
2026-04-25 11:29 38.34182 26.14022 26 ft 13 kts 188°
2026-04-25 11:30 38.34092 26.14003 26 ft 13 kts 189°
2026-04-25 11:30 38.33999 26.13983 28 ft 14 kts 188°
2026-04-25 11:30 38.33903 26.13961 26 ft 14 kts 190°
2026-04-25 11:30 38.33806 26.13942 29 ft 14 kts 189°
2026-04-25 11:31 38.33708 26.13920 28 ft 14 kts 190°
2026-04-25 11:31 38.33636 26.13927 29 ft 9 kts 182°
2026-04-25 11:31 38.33634 26.13906 26 ft 2 kts 340°
2026-04-25 11:31 38.33645 26.13907 27 ft 0 kts
2026-04-25 11:32 38.33689 26.13917 26 ft 28 kts
2026-04-25 11:33 38.34090 26.14004 26 ft 88 kts
2026-04-25 11:33 38.34856 26.14163 91 ft 126 kts
2026-04-25 11:33 38.35734 26.14298 523 ft 131 kts
2026-04-25 11:33 38.36635 26.14429 1095 ft 131 kts 10°
2026-04-25 11:34 38.37544 26.14622 1629 ft 129 kts
2026-04-25 11:34 38.38520 26.14775 1683 ft 154 kts
2026-04-25 11:34 38.39654 26.14984 1709 ft 171 kts 14°
2026-04-25 11:34 38.40568 26.15895 2010 ft 173 kts 64°
2026-04-25 11:35 38.40607 26.17394 2371 ft 176 kts 112°
2026-04-25 11:35 38.39737 26.18455 2731 ft 181 kts 159°
2026-04-25 11:35 38.38494 26.18393 3088 ft 185 kts 204°
2026-04-25 11:35 38.37424 26.17470 3460 ft 186 kts 216°
2026-04-25 11:36 38.36404 26.16455 3824 ft 186 kts 218°
2026-04-25 11:36 38.35470 26.15357 4138 ft 187 kts 235°
2026-04-25 11:36 38.34825 26.13920 4496 ft 187 kts 240°
2026-04-25 11:36 38.34197 26.12466 4895 ft 187 kts 241°
2026-04-25 11:37 38.33591 26.11001 5269 ft 187 kts 242°
2026-04-25 11:37 38.32995 26.09527 5651 ft 187 kts 242°
2026-04-25 11:37 38.32392 26.08059 6007 ft 187 kts 241°
2026-04-25 11:37 38.31786 26.06593 6356 ft 187 kts 241°
2026-04-25 11:38 38.31178 26.05127 6703 ft 187 kts 241°
2026-04-25 11:38 38.30568 26.03655 7041 ft 188 kts 241°
2026-04-25 11:38 38.29959 26.02178 7375 ft 188 kts 241°
2026-04-25 11:38 38.29347 26.00706 7703 ft 188 kts 240°
2026-04-25 11:39 38.28733 25.99226 7999 ft 189 kts 240°
2026-04-25 11:39 38.28117 25.97743 8274 ft 190 kts 240°
2026-04-25 11:39 38.27497 25.96251 8533 ft 191 kts 240°
2026-04-25 11:39 38.26879 25.94760 8828 ft 191 kts 240°
2026-04-25 11:40 38.26256 25.93266 9115 ft 191 kts 239°
2026-04-25 11:40 38.25764 25.91702 9323 ft 195 kts 264°
2026-04-25 11:40 38.26161 25.90043 9565 ft 203 kts 302°
2026-04-25 11:40 38.27080 25.88666 9852 ft 206 kts 314°
2026-04-25 11:41 38.28166 25.87473 10145 ft 207 kts 320°
2026-04-25 11:41 38.29327 25.86378 10410 ft 208 kts 323°
2026-04-25 11:41 38.30506 25.85303 10666 ft 209 kts 323°
2026-04-25 11:41 38.31672 25.84235 10921 ft 209 kts 323°
2026-04-25 11:42 38.32849 25.83133 11172 ft 210 kts 321°
2026-04-25 11:42 38.34016 25.82010 11435 ft 211 kts 321°
2026-04-25 11:42 38.35180 25.80880 11696 ft 211 kts 321°
2026-04-25 11:42 38.36349 25.79747 11950 ft 211 kts 321°
2026-04-25 11:43 38.37520 25.78611 12199 ft 212 kts 321°
2026-04-25 11:43 38.38694 25.77462 12444 ft 213 kts 321°
2026-04-25 11:43 38.39868 25.76311 12686 ft 214 kts 321°
2026-04-25 11:43 38.41049 25.75157 12916 ft 214 kts 321°
2026-04-25 11:44 38.42237 25.73997 13146 ft 215 kts 321°
2026-04-25 11:44 38.43429 25.72833 13372 ft 216 kts 321°
2026-04-25 11:44 38.44628 25.71663 13605 ft 217 kts 321°
2026-04-25 11:44 38.45823 25.70491 13844 ft 217 kts 321°
2026-04-25 11:45 38.47020 25.69318 14062 ft 218 kts 321°
2026-04-25 11:45 38.48224 25.68141 14282 ft 218 kts 322°
2026-04-25 11:45 38.49433 25.66961 14484 ft 219 kts 322°
2026-04-25 11:45 38.50643 25.65779 14690 ft 220 kts 322°
2026-04-25 11:46 38.51448 25.64992 14819 ft 220 kts 322°
2026-04-25 11:46 38.52665 25.63796 15011 ft 221 kts 322°
2026-04-25 11:46 38.53886 25.62597 15198 ft 222 kts 322°
2026-04-25 11:46 38.55110 25.61398 15379 ft 222 kts 322°
2026-04-25 11:47 38.56338 25.60196 15568 ft 223 kts 322°
2026-04-25 11:47 38.57572 25.58985 15777 ft 224 kts 322°
2026-04-25 11:47 38.58806 25.57772 15978 ft 224 kts 322°
2026-04-25 11:47 38.60044 25.56556 16172 ft 225 kts 322°
2026-04-25 11:48 38.61290 25.55333 16362 ft 226 kts 322°
2026-04-25 11:48 38.62536 25.54108 16537 ft 226 kts 322°
2026-04-25 11:48 38.63785 25.52879 16705 ft 227 kts 322°
2026-04-25 11:48 38.65044 25.51642 16866 ft 228 kts 322°
2026-04-25 11:49 38.66281 25.50421 17023 ft 228 kts 322°
2026-04-25 11:49 38.67543 25.49175 17177 ft 229 kts 322°
2026-04-25 11:49 38.68806 25.47932 17322 ft 229 kts 322°
2026-04-25 11:49 38.70073 25.46685 17467 ft 230 kts 322°
2026-04-25 11:50 38.71340 25.45435 17605 ft 230 kts 322°
2026-04-25 11:50 38.72611 25.44183 17741 ft 231 kts 322°
2026-04-25 11:50 38.73884 25.42923 17889 ft 232 kts 322°
2026-04-25 11:50 38.75177 25.41648 17963 ft 237 kts 322°
2026-04-25 11:51 38.76496 25.40347 17997 ft 242 kts 322°
2026-04-25 11:51 38.77843 25.39012 18016 ft 247 kts 322°
2026-04-25 11:51 38.79217 25.37655 18025 ft 251 kts 323°
2026-04-25 11:51 38.80613 25.36272 18016 ft 255 kts 322°
2026-04-25 11:52 38.82030 25.34870 18017 ft 259 kts 323°
2026-04-25 11:52 38.83464 25.33450 18032 ft 262 kts 322°
2026-04-25 11:52 38.84909 25.32013 18030 ft 264 kts 322°
2026-04-25 11:52 38.86363 25.30573 18027 ft 265 kts 323°
2026-04-25 11:53 38.87828 25.29120 18032 ft 267 kts 323°
2026-04-25 11:53 38.89301 25.27660 18024 ft 268 kts 323°
2026-04-25 11:53 38.90777 25.26193 18026 ft 269 kts 323°
2026-04-25 11:53 38.92260 25.24718 18032 ft 270 kts 323°
2026-04-25 11:54 38.93749 25.23238 18032 ft 271 kts 323°
2026-04-25 11:54 38.95240 25.21754 18034 ft 272 kts 323°
2026-04-25 11:54 38.98228 25.18778 18035 ft 272 kts 323°
2026-04-25 11:55 38.99704 25.17306 18035 ft 272 kts 323°
2026-04-25 11:55 39.01200 25.15814 18035 ft 272 kts 323°
2026-04-25 11:55 39.02696 25.14323 18036 ft 272 kts 323°
2026-04-25 11:55 39.04194 25.12830 18036 ft 273 kts 323°
2026-04-25 11:56 39.05690 25.11333 18038 ft 273 kts 323°
2026-04-25 11:56 39.07187 25.09837 18041 ft 273 kts 323°
2026-04-25 11:56 39.08685 25.08341 18043 ft 273 kts 323°
2026-04-25 11:56 39.10183 25.06843 18044 ft 273 kts 323°
2026-04-25 11:57 39.11683 25.05341 18044 ft 273 kts 323°
2026-04-25 11:57 39.13181 25.03841 18045 ft 273 kts 323°
2026-04-25 11:57 39.14678 25.02340 18045 ft 273 kts 323°
2026-04-25 11:57 39.16176 25.00837 18045 ft 273 kts 323°
2026-04-25 11:58 39.17675 24.99334 18045 ft 273 kts 323°
2026-04-25 11:58 39.19173 24.97832 18045 ft 273 kts 323°
2026-04-25 11:58 39.20672 24.96334 18045 ft 273 kts 323°
2026-04-25 11:58 39.22170 24.94833 18045 ft 273 kts 323°
2026-04-25 11:59 39.23660 24.93318 18045 ft 273 kts 323°
2026-04-25 11:59 39.25155 24.91810 18045 ft 273 kts 323°
2026-04-25 11:59 39.26651 24.90310 18045 ft 272 kts 323°
2026-04-25 12:00 39.29643 24.87300 18045 ft 273 kts 323°
2026-04-25 12:00 39.31120 24.85814 18045 ft 273 kts 323°
2026-04-25 12:00 39.34125 24.82783 18045 ft 272 kts 323°
2026-04-25 12:01 39.35600 24.81296 18045 ft 272 kts 323°
2026-04-25 12:01 39.37096 24.79786 18045 ft 273 kts 323°
2026-04-25 12:01 39.38592 24.78272 18045 ft 273 kts 323°
2026-04-25 12:01 39.40086 24.76760 18045 ft 273 kts 323°
2026-04-25 12:02 39.43078 24.73738 18045 ft 273 kts 323°
2026-04-25 12:02 39.44570 24.72225 18045 ft 273 kts 323°
2026-04-25 12:02 39.46064 24.70714 18045 ft 273 kts 323°
2026-04-25 12:03 39.47556 24.69202 18045 ft 272 kts 323°
2026-04-25 12:03 39.49049 24.67691 18045 ft 272 kts 323°
2026-04-25 12:03 39.50500 24.66124 18043 ft 272 kts 314°
2026-04-25 12:03 39.51651 24.64188 18045 ft 271 kts 306°
2026-04-25 12:04 39.52713 24.62168 18045 ft 272 kts 305°
2026-04-25 12:04 39.53786 24.60152 18045 ft 272 kts 307°
2026-04-25 12:04 39.54908 24.58176 18045 ft 272 kts 308°
2026-04-25 12:04 39.56045 24.56253 18045 ft 272 kts 309°
2026-04-25 12:05 39.57194 24.54299 18046 ft 273 kts 309°
2026-04-25 12:05 39.58338 24.52338 18046 ft 273 kts 309°
2026-04-25 12:05 39.59485 24.50374 18045 ft 273 kts 309°
2026-04-25 12:05 39.60632 24.48408 18045 ft 273 kts 309°
2026-04-25 12:06 39.61780 24.46435 18045 ft 273 kts 309°
2026-04-25 12:06 39.62926 24.44467 18045 ft 273 kts 309°
2026-04-25 12:06 39.64073 24.42501 18045 ft 273 kts 309°
2026-04-25 12:06 39.65215 24.40535 18045 ft 273 kts 309°
2026-04-25 12:07 39.66359 24.38568 18045 ft 273 kts 309°
2026-04-25 12:07 39.67505 24.36598 18045 ft 273 kts 309°
2026-04-25 12:07 39.68647 24.34631 18045 ft 273 kts 309°
2026-04-25 12:07 39.69794 24.32655 18045 ft 274 kts 309°
2026-04-25 12:08 39.70939 24.30681 18045 ft 274 kts 309°
2026-04-25 12:08 39.72086 24.28700 18046 ft 274 kts 309°
2026-04-25 12:08 39.73229 24.26725 18047 ft 274 kts 309°
2026-04-25 12:08 39.74376 24.24747 18046 ft 274 kts 309°
2026-04-25 12:09 39.75521 24.22765 18044 ft 274 kts 309°
2026-04-25 12:09 39.76666 24.20787 18044 ft 274 kts 309°
2026-04-25 12:09 39.77812 24.18802 18044 ft 274 kts 309°
2026-04-25 12:09 39.78956 24.16825 18044 ft 274 kts 309°
2026-04-25 12:10 39.80100 24.14844 18045 ft 274 kts 309°
2026-04-25 12:10 39.81241 24.12864 18045 ft 274 kts 309°
2026-04-25 12:10 39.82383 24.10881 18045 ft 274 kts 309°
2026-04-25 12:10 39.83526 24.08897 18045 ft 274 kts 309°
2026-04-25 12:11 39.84667 24.06914 18046 ft 274 kts 309°
2026-04-25 12:11 39.85809 24.04927 18045 ft 274 kts 309°
2026-04-25 12:11 39.86953 24.02942 18043 ft 274 kts 309°
2026-04-25 12:11 39.88095 24.00958 18042 ft 274 kts 308°
2026-04-25 12:12 39.89238 23.98962 18044 ft 275 kts 308°
2026-04-25 12:12 39.89993 23.97643 18044 ft 274 kts 308°
2026-04-25 12:12 39.91521 23.94978 18045 ft 275 kts 308°
2026-04-25 12:12 39.92665 23.92980 18045 ft 275 kts 308°
2026-04-25 12:13 39.93810 23.90984 18045 ft 275 kts 308°
2026-04-25 12:13 39.94952 23.88986 18045 ft 275 kts 308°
2026-04-25 12:13 39.96095 23.86990 18045 ft 275 kts 308°
2026-04-25 12:13 39.97238 23.84990 18045 ft 275 kts 308°
2026-04-25 12:14 39.98366 23.83015 18045 ft 275 kts 308°
2026-04-25 12:14 39.99522 23.80990 18045 ft 275 kts 308°
2026-04-25 12:14 40.00649 23.79011 18045 ft 275 kts 308°
2026-04-25 12:14 40.01792 23.77010 18045 ft 275 kts 308°
2026-04-25 12:15 40.02930 23.75010 18045 ft 275 kts 308°
2026-04-25 12:15 40.04070 23.73012 18045 ft 275 kts 308°
2026-04-25 12:15 40.04991 23.71397 18045 ft 275 kts 308°
2026-04-25 12:15 40.05919 23.69762 18045 ft 275 kts 308°
2026-04-25 12:16 40.07057 23.67757 18045 ft 275 kts 308°
2026-04-25 12:16 40.08195 23.65754 18045 ft 275 kts 308°
2026-04-25 12:16 40.09333 23.63749 18045 ft 274 kts 308°
2026-04-25 12:16 40.10421 23.61832 18045 ft 274 kts 308°
2026-04-25 12:17 40.11558 23.59830 18045 ft 274 kts 308°
2026-04-25 12:17 40.12692 23.57830 18045 ft 274 kts 308°
2026-04-25 12:17 40.13807 23.55860 18045 ft 274 kts 308°
2026-04-25 12:17 40.14928 23.53878 18045 ft 274 kts 308°
2026-04-25 12:18 40.16061 23.51874 18045 ft 274 kts 308°
2026-04-25 12:18 40.17194 23.49871 18045 ft 274 kts 308°
2026-04-25 12:18 40.18325 23.47870 18045 ft 274 kts 308°
2026-04-25 12:18 40.19456 23.45864 18045 ft 274 kts 308°
2026-04-25 12:19 40.21333 23.42538 18045 ft 273 kts 308°
2026-04-25 12:19 40.22841 23.39863 18045 ft 273 kts 308°
2026-04-25 12:19 40.23970 23.37858 18045 ft 273 kts 308°
2026-04-25 12:20 40.25093 23.35859 18045 ft 273 kts 308°
2026-04-25 12:20 40.26220 23.33857 18048 ft 273 kts 308°
2026-04-25 12:20 40.27347 23.31855 18046 ft 273 kts 308°
2026-04-25 12:20 40.28471 23.29850 18045 ft 273 kts 308°
2026-04-25 12:21 40.29596 23.27846 18045 ft 273 kts 308°
2026-04-25 12:21 40.30721 23.25844 18043 ft 273 kts 308°
2026-04-25 12:21 40.31843 23.23839 18044 ft 272 kts 308°
2026-04-25 12:21 40.32963 23.21838 18044 ft 272 kts 308°
2026-04-25 12:22 40.34082 23.19841 18046 ft 272 kts 308°
2026-04-25 12:22 40.35202 23.17839 18046 ft 272 kts 308°
2026-04-25 12:22 40.36305 23.15866 18044 ft 272 kts 308°
2026-04-25 12:22 40.37423 23.13866 18045 ft 272 kts 308°
2026-04-25 12:23 40.38539 23.11867 18045 ft 271 kts 308°
2026-04-25 12:23 40.39657 23.09867 18044 ft 271 kts 308°
2026-04-25 12:23 40.40773 23.07867 18046 ft 272 kts 308°
2026-04-25 12:23 40.41889 23.05864 18047 ft 272 kts 308°
2026-04-25 12:24 40.43001 23.03865 18046 ft 271 kts 308°
2026-04-25 12:24 40.44113 23.01864 18046 ft 271 kts 308°
2026-04-25 12:24 40.45205 22.99848 18040 ft 271 kts 302°
2026-04-25 12:24 40.45759 22.97495 18045 ft 272 kts 278°
2026-04-25 12:25 40.45845 22.95013 18045 ft 273 kts 270°
2026-04-25 12:25 40.45792 22.92523 18045 ft 273 kts 269°
2026-04-25 12:25 40.45723 22.90026 18044 ft 274 kts 269°
2026-04-25 12:25 40.45688 22.87530 18046 ft 274 kts 271°
2026-04-25 12:26 40.45693 22.85023 18047 ft 275 kts 272°
2026-04-25 12:26 40.45703 22.82518 18043 ft 275 kts 271°
2026-04-25 12:26 40.45707 22.80009 18044 ft 275 kts 271°
2026-04-25 12:26 40.45713 22.77503 18044 ft 275 kts 271°
2026-04-25 12:27 40.45718 22.74988 18045 ft 275 kts 271°
2026-04-25 12:27 40.45721 22.72476 18045 ft 275 kts 271°
2026-04-25 12:27 40.45725 22.69967 18046 ft 275 kts 271°
2026-04-25 12:27 40.45727 22.67448 18051 ft 275 kts 271°
2026-04-25 12:28 40.45727 22.64941 18053 ft 275 kts 271°
2026-04-25 12:28 40.45731 22.62428 18053 ft 275 kts 271°
2026-04-25 12:28 40.45732 22.59918 18054 ft 275 kts 271°
2026-04-25 12:28 40.45733 22.57432 18057 ft 275 kts 271°
2026-04-25 12:29 40.45731 22.54922 18057 ft 275 kts 271°
2026-04-25 12:29 40.45732 22.52380 18054 ft 275 kts 271°
2026-04-25 12:29 40.45729 22.49867 18052 ft 275 kts 271°
2026-04-25 12:29 40.45729 22.47349 18055 ft 276 kts 271°
2026-04-25 12:30 40.45726 22.44866 18056 ft 276 kts 271°
2026-04-25 12:30 40.45718 22.42346 18054 ft 276 kts 271°
2026-04-25 12:30 40.45720 22.39829 18054 ft 276 kts 272°
2026-04-25 12:30 40.45720 22.37306 18063 ft 276 kts 271°
2026-04-25 12:31 40.45717 22.34781 18066 ft 277 kts 271°
2026-04-25 12:31 40.45712 22.32257 18062 ft 277 kts 271°
2026-04-25 12:31 40.45709 22.29727 18063 ft 277 kts 271°
2026-04-25 12:31 40.45703 22.27196 18064 ft 277 kts 271°
2026-04-25 12:32 40.45698 22.24658 18063 ft 278 kts 271°
2026-04-25 12:32 40.45694 22.22981 18061 ft 278 kts 271°
2026-04-25 12:32 40.45687 22.20448 18064 ft 278 kts 271°
2026-04-25 12:32 40.45681 22.17906 18064 ft 278 kts 271°
2026-04-25 12:33 40.45677 22.15370 18068 ft 278 kts 271°
2026-04-25 12:33 40.45668 22.12837 18073 ft 278 kts 271°
2026-04-25 12:33 40.45657 22.10298 18075 ft 278 kts 271°
2026-04-25 12:33 40.45647 22.07755 18075 ft 279 kts 271°
2026-04-25 12:34 40.45639 22.05207 18073 ft 279 kts 271°
2026-04-25 12:34 40.45627 22.02662 18068 ft 279 kts 271°
2026-04-25 12:34 40.45616 22.00116 18066 ft 279 kts 271°
2026-04-25 12:34 40.45610 21.98399 18063 ft 278 kts 271°
2026-04-25 12:35 40.45594 21.95040 18074 ft 278 kts 271°
2026-04-25 12:35 40.45582 21.92507 18074 ft 277 kts 271°
2026-04-25 12:35 40.45570 21.89976 18065 ft 277 kts 271°
2026-04-25 12:35 40.45556 21.87451 18071 ft 276 kts 271°
2026-04-25 12:36 40.45544 21.84933 18076 ft 276 kts 271°
2026-04-25 12:36 40.45528 21.82412 18076 ft 276 kts 271°
2026-04-25 12:36 40.45512 21.79888 18076 ft 277 kts 271°
2026-04-25 12:36 40.45496 21.77361 18074 ft 277 kts 271°
2026-04-25 12:37 40.45481 21.74829 18076 ft 277 kts 271°
2026-04-25 12:37 40.45466 21.72297 18076 ft 278 kts 271°
2026-04-25 12:37 40.45447 21.69762 18075 ft 278 kts 271°
2026-04-25 12:37 40.45430 21.67217 18074 ft 278 kts 271°
2026-04-25 12:38 40.45411 21.64666 18075 ft 279 kts 271°
2026-04-25 12:38 40.45390 21.62150 18072 ft 279 kts 271°
2026-04-25 12:38 40.45373 21.59568 18072 ft 279 kts 271°
2026-04-25 12:38 40.45354 21.57057 18073 ft 279 kts 271°
2026-04-25 12:39 40.45336 21.54512 18072 ft 279 kts 271°
2026-04-25 12:39 40.45312 21.51968 18070 ft 278 kts 271°
2026-04-25 12:39 40.45288 21.49424 18068 ft 278 kts 271°
2026-04-25 12:39 40.45264 21.46889 18075 ft 278 kts 271°
2026-04-25 12:40 40.45243 21.44349 18066 ft 278 kts 271°
2026-04-25 12:40 40.45221 21.41810 18064 ft 278 kts 271°
2026-04-25 12:40 40.45195 21.39276 18071 ft 278 kts 271°
2026-04-25 12:40 40.45172 21.36740 18068 ft 278 kts 271°
2026-04-25 12:41 40.45145 21.34207 18061 ft 277 kts 271°
2026-04-25 12:41 40.45121 21.31673 18061 ft 277 kts 271°
2026-04-25 12:41 40.45095 21.29142 18063 ft 277 kts 271°
2026-04-25 12:41 40.45086 21.26615 18063 ft 276 kts 275°
2026-04-25 12:42 40.45306 21.24118 18064 ft 275 kts 281°
2026-04-25 12:42 40.45516 21.22444 18060 ft 276 kts 282°
2026-04-25 12:42 40.45919 21.19152 18057 ft 276 kts 281°
2026-04-25 12:42 40.46170 21.16654 18054 ft 276 kts 279°
2026-04-25 12:43 40.46397 21.14151 18056 ft 276 kts 279°
2026-04-25 12:43 40.46630 21.11655 18056 ft 276 kts 279°
2026-04-25 12:43 40.47096 21.06654 18053 ft 276 kts 279°
2026-04-25 12:44 40.47328 21.04158 18055 ft 275 kts 279°
2026-04-25 12:44 40.47561 21.01661 18056 ft 275 kts 279°
2026-04-25 12:44 40.48023 20.96663 18054 ft 275 kts 279°
2026-04-25 12:45 40.48549 20.94297 18056 ft 269 kts 298°
2026-04-25 12:45 40.49460 20.92154 18056 ft 269 kts 305°
2026-04-25 12:45 40.51475 20.87990 18052 ft 271 kts 305°
2026-04-25 12:46 40.52442 20.85869 18049 ft 271 kts 303°
2026-04-25 12:46 40.53386 20.83726 18051 ft 270 kts 303°
2026-04-25 12:46 40.54330 20.81593 18051 ft 270 kts 303°
2026-04-25 12:46 40.55274 20.79456 18053 ft 270 kts 303°
2026-04-25 12:47 40.56217 20.77323 18047 ft 271 kts 303°
2026-04-25 12:47 40.57152 20.75207 18041 ft 271 kts 303°
2026-04-25 12:47 40.58098 20.73062 18039 ft 271 kts 303°
2026-04-25 12:47 40.59039 20.70927 18043 ft 270 kts 303°
2026-04-25 12:48 40.59982 20.68789 18048 ft 270 kts 303°
2026-04-25 12:48 40.60926 20.66646 18047 ft 271 kts 303°
2026-04-25 12:48 40.61872 20.64499 18047 ft 271 kts 303°
2026-04-25 12:48 40.62817 20.62349 18041 ft 271 kts 303°
2026-04-25 12:49 40.63760 20.60204 18041 ft 270 kts 303°
2026-04-25 12:49 40.64700 20.58068 18047 ft 270 kts 303°
2026-04-25 12:49 40.65637 20.55927 18040 ft 270 kts 303°
2026-04-25 12:49 40.66576 20.53790 18033 ft 269 kts 303°
2026-04-25 12:50 40.67510 20.51656 18053 ft 269 kts 303°
2026-04-25 12:50 40.68447 20.49523 18051 ft 270 kts 303°
2026-04-25 12:50 40.69383 20.47380 18047 ft 270 kts 303°
2026-04-25 12:50 40.70323 20.45231 18042 ft 270 kts 303°
2026-04-25 12:51 40.71260 20.43089 18017 ft 270 kts 303°
2026-04-25 12:51 40.72217 20.40899 17682 ft 280 kts 303°
2026-04-25 12:51 40.73194 20.38666 17293 ft 282 kts 303°
2026-04-25 12:51 40.74171 20.36418 16909 ft 283 kts 303°
2026-04-25 12:52 40.75158 20.34158 16531 ft 285 kts 302°
2026-04-25 12:52 40.76145 20.31880 16129 ft 286 kts 302°
2026-04-25 12:52 40.77138 20.29601 15741 ft 288 kts 302°
2026-04-25 12:52 40.78137 20.27307 15348 ft 288 kts 302°
2026-04-25 12:53 40.79133 20.25011 14949 ft 288 kts 302°
2026-04-25 12:53 40.80127 20.22721 14548 ft 287 kts 302°
2026-04-25 12:53 40.81119 20.20435 14150 ft 287 kts 301°
2026-04-25 12:53 40.82108 20.18155 13745 ft 285 kts 301°
2026-04-25 12:54 40.83088 20.15888 13356 ft 284 kts 301°
2026-04-25 12:54 40.84067 20.13629 12969 ft 282 kts 301°
2026-04-25 12:54 40.85042 20.11384 12576 ft 281 kts 301°
2026-04-25 12:54 40.86031 20.09174 12218 ft 275 kts 307°
2026-04-25 12:55 40.87454 20.07567 11909 ft 269 kts 329°
2026-04-25 12:55 40.88551 20.06813 11694 ft 268 kts 336°
2026-04-25 12:55 40.90867 20.05632 11272 ft 266 kts 341°
2026-04-25 12:55 40.92609 20.04812 10956 ft 266 kts 341°
2026-04-25 12:56 40.94340 20.03955 10639 ft 265 kts 339°
2026-04-25 12:56 40.96029 20.03062 10330 ft 264 kts 338°
2026-04-25 12:56 40.97758 20.02140 10012 ft 264 kts 338°
2026-04-25 12:56 40.99433 20.01247 9695 ft 263 kts 339°
2026-04-25 12:57 41.01127 20.00345 9390 ft 262 kts 339°
2026-04-25 12:57 41.02841 19.99432 9063 ft 261 kts 338°
2026-04-25 12:57 41.04503 19.98545 8759 ft 261 kts 338°
2026-04-25 12:57 41.06089 19.97428 8366 ft 260 kts 319°
2026-04-25 12:58 41.07093 19.95415 7985 ft 259 kts 295°
2026-04-25 12:58 41.07841 19.93266 7612 ft 261 kts 296°
2026-04-25 12:58 41.08707 19.91143 7228 ft 262 kts 302°
2026-04-25 12:58 41.09748 19.89156 6860 ft 264 kts 308°
2026-04-25 12:59 41.10911 19.87265 6470 ft 265 kts 311°
2026-04-25 12:59 41.12109 19.85401 6086 ft 265 kts 311°
2026-04-25 12:59 41.13292 19.83548 5698 ft 262 kts 310°
2026-04-25 12:59 41.14436 19.81690 5306 ft 258 kts 309°
2026-04-25 13:00 41.15548 19.79859 4940 ft 253 kts 309°
2026-04-25 13:00 41.17690 19.76340 4227 ft 225 kts 310°
2026-04-25 13:00 41.18871 19.75239 3930 ft 199 kts 342°
2026-04-25 13:01 41.20168 19.74812 3673 ft 187 kts 351°
2026-04-25 13:01 41.21429 19.74587 3439 ft 176 kts 355°
2026-04-25 13:01 41.22615 19.74454 3193 ft 168 kts 356°
2026-04-25 13:01 41.23781 19.74328 2955 ft 169 kts 356°
2026-04-25 13:02 41.24943 19.74204 2809 ft 163 kts 356°
2026-04-25 13:02 41.26044 19.74084 2695 ft 155 kts 356°
2026-04-25 13:02 41.27100 19.73959 2567 ft 150 kts 355°
2026-04-25 13:02 41.28127 19.73819 2479 ft 151 kts 355°
2026-04-25 13:03 41.29173 19.73683 2356 ft 151 kts 355°
2026-04-25 13:03 41.30219 19.73562 2228 ft 150 kts 354°
2026-04-25 13:03 41.31207 19.73437 2098 ft 131 kts 353°
2026-04-25 13:03 41.32055 19.73325 2023 ft 114 kts 352°
2026-04-25 13:04 41.32833 19.73233 1885 ft 114 kts 351°
2026-04-25 13:04 41.33643 19.73124 1726 ft 119 kts 351°
2026-04-25 13:04 41.34430 19.73021 1630 ft 110 kts 349°
2026-04-25 13:04 41.35214 19.72896 1430 ft 113 kts 349°
2026-04-25 13:05 41.36014 19.72764 1264 ft 117 kts 350°
2026-04-25 13:05 41.36835 19.72660 1092 ft 121 kts 351°
2026-04-25 13:05 41.37670 19.72549 883 ft 121 kts 350°
2026-04-25 13:05 41.38517 19.72433 657 ft 124 kts 353°
2026-04-25 13:06 41.39380 19.72326 379 ft 125 kts 353°
2026-04-25 13:06 41.40233 19.72224 173 ft 119 kts 352°
2026-04-25 13:06 41.41002 19.72118 127 ft 88 kts 354°
2026-04-25 13:06 41.41334 19.72074 123 ft 35 kts 354°
2026-04-25 13:07 41.41549 19.72045 124 ft 27 kts 353°
2026-04-25 13:07 41.41713 19.72024 122 ft 21 kts 354°
2026-04-25 13:07 41.41837 19.72007 121 ft 11 kts 353°
2026-04-25 13:07 41.41874 19.71947 124 ft 8 kts 269°
2026-04-25 13:08 41.41871 19.71893 125 ft 4 kts 265°
2026-04-25 13:08 41.41869 19.71857 125 ft 5 kts 266°
2026-04-25 13:08 41.41863 19.71759 126 ft 13 kts 265°
2026-04-25 13:08 41.41856 19.71651 128 ft 8 kts 267°
2026-04-25 13:09 41.41883 19.71586 128 ft 9 kts 340°
2026-04-25 13:09 41.41942 19.71576 128 ft 7 kts 350°
2026-04-25 13:09 41.41954 19.71539 128 ft 5 kts 266°
2026-04-25 13:09 41.41952 19.71511 128 ft 2 kts 264°
2026-04-25 13:10 41.41952 19.71510 128 ft 0 kts 264°